STARLINK-35444, 66511

Orbit data source: Space-Track

STARLINK-35444, 66511 is a payload satellite owned by SpaceX/Seattle (US) in LEO that was launched on Sat, 15 Nov 2025 UTC via an FALCON 9 launch vehicle from the Air Force Eastern Test Range (AFETR). Payload-class satellites include a variety of spacecraft equipped with specific instruments for various scientific and technological missions. These include communications satellites like Starlink; space stations such as the ISS; scientific satellites like the Hubble; Earth observation satellites from companies like Planet Labs, Umbra, and HawkEye 360; GPS; miniature CubeSats for education and research; and military/defense satellites.

Loading next visibility...
Identifier
66511, 2025-263AC
Orbit
LEO
Country
Flag of USUS
Related business
Manufacturer
SpaceX/Seattle
Mission
Operational Commercial Communications
Bus & Motor
STARLINK V2MO, Unknown motor
Mass
575 kg wet, ~530 kg dry
Launch date (UTC)
2025-11-15 (7 months ago)
Launch vehicle
FALCON 9
Launch site
Air Force Eastern Test Range (AFETR)
Object type
Payload
Rocket body
Debris
Shape & HBR
Box + 2 Pan, 17.7 m
Radar Cross Section
36.964 m², Large (>1 m²)

Expand to show TLE details & history
Last TLE update: 15 hours ago

TLE from 15 hours ago
0 STARLINK-35444
1 66511U 25263AC  26171.23666260  .00012215  00000-0  45250-3 0  9995
2 66511  43.0013 131.4271 0001574 264.3751  95.6921 15.27591446 34582
Epoch: 2026-06-20T05:40Z
TLE epoch observation values (Epoch: 2026-06-20T05:40:47.648Z)
Latitude
-0.00004°
Longitude
137.77435°
Altitude
482.898 km
Speed
7.626 km/s
True Right ascension
08h 45m 42s
True Declination
0° 00' 00"
Sunlit
Object was in daylight at epoch
Visualization orbit readout
Latitude
Unknown
Longitude
Unknown
Altitude
Unknown
Speed
Unknown
Apparent Right ascension
Unknown
Apparent Declination
Unknown
Sunlit
N/A
Visualization observer readout
Local Sidereal Time
07:14:11
Azimuth
Unknown
Elevation
Unknown
Doppler factor
Unknown
Orbital elements
Apogee altitude
486.04 km
Perigee altitude
483.88 km
Semi-major axis
6,863.097 km
Eccentricity
0.00016
Inclination
43.0013°
RAAN
131.4271°
Arg. of periapsis
264.3751°
True anomaly
95.71005°
Mean anomaly
95.6921°
Eccentric anomaly
95.70107°
Mean motion
3.81736 °/min
Orbital period
94.31 mins
BSTAR
0.0004525
Loading maneuver chart data...
Computing Atmospheric mass density...
Loading historical data...
Loading historical data...
Loading historical data...
Loading historical data...
Loading historical data...
Loading historical data...
Loading historical data...

Documentation

Showing up to 5 results
|